Simultaneous Nadir Overpasses (SNOs) Predictions

Prediction of SNOs between LANDSAT-8 and NOAA-19 Satellite Orbit:

Table of predicted SNOs for the next 14.0 days since TLE Epoch: 12/26/2020
Index Date (LANDSAT-8) Time (LANDSAT-8) Lat,Lon (LANDSAT-8) SZA (LANDSAT-8 ) Date (NOAA-19) Time (NOAA-19) Lat,Lon (NOAA-19) SZA (NOAA-19 ) Distance(km) Time Diff (sec)
1 12/27/2020 21:26:37 -80.15, 67.23 75.51 12/27/2020 21:25:46 -80.14, 67.08 75.54 2.95 51
2 12/27/2020 22:16:04 80.12,-125.42 104.45 12/27/2020 22:16:47 80.13,-125.47 104.47 1.42 43
3 12/30/2020 03:49:48 -80.12, -28.88 75.72 12/30/2020 03:49:59 -80.14, -28.79 75.69 2.83 11
4 01/01/2021 09:23:30 80.14, 67.91 104.14 01/01/2021 09:23:15 80.15, 67.83 104.13 1.76 15
5 01/01/2021 10:12:57 -80.15,-124.41 75.87 01/01/2021 10:14:11 -80.11,-124.35 75.87 4.17 74
6 01/03/2021 14:57:14 -80.14, 164.44 76.10 01/03/2021 14:56:26 -80.16, 164.47 76.10 2.33 48
7 01/03/2021 15:46:40 80.13, -27.95 103.89 01/03/2021 15:47:28 80.13, -27.91 103.91 0.82 48
8 01/05/2021 20:30:56 80.15, -98.83 103.66 01/05/2021 20:29:43 80.17, -98.96 103.65 2.98 73
9 01/05/2021 21:20:24 -80.13, 68.57 76.39 01/05/2021 21:20:39 -80.15, 68.56 76.36 2.84 15
10 01/08/2021 02:54:06 80.14, 165.26 103.34 01/08/2021 02:53:56 80.16, 165.27 103.35 1.85 10



Historial Predications of SNOs between LANDSAT-8 and NOAA-19
